Gainesville, GA

12:05 PM EDT on August 21, 2017 (GMT -0400)
Gilmer Memorial

Weather History for KGVL - August, 2012

Change the Weather History Date:

Sunday, August 26, 2012

  Actual Average Record
Temperature  
Mean Temperature 76 °F 77 °F  
Max Temperature 88 °F 86 °F 97 °F (1938)
Min Temperature 66 °F 68 °F 52 °F (1935)
Cooling Degree Days 11 12  
Month to date cooling degree days 348  
Year to date cooling degree days 1270  
Since 1 June cooling degree days 1095  
Growing Degree Days 26 (Base 50)    
Moisture  
Dew Point 64 °F    
Average Humidity 68    
Maximum Humidity 90    
Minimum Humidity 44    
Precipitation  
Precipitation 0.00 in 0.13 in 4.14 in (2008)
Month to date precipitation 3.87  
Year to date precipitation 35.69  
Sea Level Pressure  
Sea Level Pressure 30.13 in    
Wind  
Wind Speed 3 mph (ENE)    
Max Wind Speed 8 mph    
Max Gust Speed -    
Visibility 10 miles    
Events      
T = Trace of Precipitation, MM = Missing Value Source: NWS Daily Summary

Daily Weather History Graph

Daily Weather History Graph

Search for Another Location

Airport or City:

Trip Planner

Search our weather history database for the weather conditions in past years. The results will help you decide how hot, cold, wet, or windy it might be!

Date:

Astronomy

Aug. 26, 2012 Rise Set
Actual Time 7:04 AM EDT 8:08 PM EDT
Civil Twilight 6:38 AM EDT 8:34 PM EDT
Nautical Twilight 6:08 AM EDT 9:05 PM EDT
Astronomical Twilight 5:36 AM EDT 9:36 PM EDT
Moon 4:29 PM EDT (8/26) 1:53 AM EDT (8/26)
Length of Visible Light 13h 55m
Length of Day
13h 03m
Waxing Gibbous, 73% of the Moon is Illuminated
Aug 26
Waxing Gibbous
Aug 31
Full
Sep 8
Last Quarter
Sep 15
New
Sep 22
First Quarter

Hourly Weather History & Observations

Time (EDT) Temp. Heat Index Dew Point Humidity Pressure Visibility Wind Dir Wind Speed Gust Speed Precip Events Conditions
12:53 AM 71.1 °F - 64.9 °F 81% 30.14 in 10.0 mi Calm Calm - N/A   Clear
1:53 AM 71.1 °F - 64.9 °F 81% 30.14 in 10.0 mi NE 3.5 mph - N/A   Overcast
2:53 AM 70.0 °F - 64.9 °F 84% 30.13 in 10.0 mi NNE 4.6 mph - N/A   Partly Cloudy
3:53 AM 69.1 °F - 64.9 °F 87% 30.13 in 10.0 mi ENE 3.5 mph - N/A   Clear
4:53 AM 68.0 °F - 64.9 °F 90% 30.12 in 9.0 mi NNE 4.6 mph - N/A   Clear
5:53 AM 68.0 °F - 64.0 °F 87% 30.12 in 10.0 mi NE 3.5 mph - N/A   Clear
6:53 AM 66.9 °F - 64.0 °F 90% 30.15 in 10.0 mi Calm Calm - N/A   Clear
7:53 AM 69.1 °F - 64.0 °F 84% 30.17 in 10.0 mi NNE 3.5 mph - N/A   Clear
8:53 AM 73.0 °F - 64.0 °F 73% 30.18 in 10.0 mi NNE 3.5 mph - N/A   Clear
9:53 AM 75.9 °F - 64.0 °F 67% 30.19 in 10.0 mi Calm Calm - N/A   Clear
10:53 AM 79.0 °F - 64.9 °F 62% 30.19 in 10.0 mi SSE 3.5 mph - N/A   Clear
11:53 AM 82.0 °F 83.4 °F 64.0 °F 54% 30.18 in 10.0 mi North 5.8 mph - N/A   Clear
12:53 PM 82.9 °F 84.6 °F 64.9 °F 54% 30.17 in 10.0 mi Variable 6.9 mph - N/A   Clear
1:53 PM 84.9 °F 86.1 °F 64.0 °F 49% 30.15 in 10.0 mi NNW 5.8 mph - N/A   Partly Cloudy
2:53 PM 86.0 °F 87.3 °F 64.0 °F 48% 30.12 in 10.0 mi East 6.9 mph - N/A   Partly Cloudy
5:53 PM 86.0 °F 86.3 °F 62.1 °F 44% 30.08 in 10.0 mi East 8.1 mph - N/A   Clear
6:53 PM 84.0 °F 84.9 °F 63.0 °F 49% 30.07 in 10.0 mi East 5.8 mph - N/A   Clear
7:53 PM 81.0 °F 82.2 °F 63.0 °F 54% 30.08 in 10.0 mi East 5.8 mph - N/A   Clear
8:53 PM 78.1 °F - 62.1 °F 58% 30.09 in 10.0 mi East 3.5 mph - N/A   Clear
9:53 PM 75.9 °F - 62.1 °F 62% 30.10 in 10.0 mi East 4.6 mph - N/A   Clear
10:53 PM 75.0 °F - 63.0 °F 66% 30.11 in 10.0 mi East 3.5 mph - N/A   Clear
11:53 PM 73.9 °F - 63.0 °F 68% 30.11 in 10.0 mi Calm Calm - N/A   Clear